Lincoln, CA

7:34 PM PST on December 05, 2016 (GMT -0800)
Lincoln Regional-Harder

Weather History for KLHM - July, 2013

Change the Weather History Date:

Monday, July 22, 2013

  Actual Average (KAUN) Record (KAUN)
Temperature  
Mean Temperature 82 °F -  
Max Temperature 95 °F 91 °F 107 °F (1960)
Min Temperature 68 °F 62 °F 51 °F (1984)
Cooling Degree Days 16    
Growing Degree Days 32 (Base 50)    
Moisture  
Dew Point 44 °F    
Average Humidity 30    
Maximum Humidity 56    
Minimum Humidity 13    
Precipitation  
Precipitation 0.00 in - - ()
Sea Level Pressure  
Sea Level Pressure 29.87 in    
Wind  
Wind Speed 11 mph (SSE)    
Max Wind Speed 18 mph    
Max Gust Speed 23 mph    
Visibility 10 miles    
Events      
Averages and records for this station are not official NWS values.
T = Trace of Precipitation, MM = Missing Value Source: NWS Daily Summary

Daily Weather History Graph

Daily Weather History Graph

Search for Another Location

Airport or City:

Trip Planner

Search our weather history database for the weather conditions in past years. The results will help you decide how hot, cold, wet, or windy it might be!

Date:

Astronomy

Jul. 22, 2013 Rise Set
Actual Time 5:58 AM PDT 8:25 PM PDT
Civil Twilight 5:27 AM PDT 8:55 PM PDT
Nautical Twilight 4:49 AM PDT 9:33 PM PDT
Astronomical Twilight 4:07 AM PDT 10:15 PM PDT
Moon 8:16 PM PDT (7/22) 6:00 AM PDT (7/22)
Length of Visible Light 15h 28m
Length of Day
14h 27m
Full, 100% of the Moon is Illuminated
Jul 22
Full
Jul 29
Last Quarter
Aug 6
New
Aug 14
First Quarter
Aug 20
Full

Hourly Weather History & Observations

Time (PDT) Temp. Dew Point Humidity Pressure Visibility Wind Dir Wind Speed Gust Speed Precip Events Conditions
12:15 AM 73.4 °F 42.8 °F 33% 29.81 in 10.0 mi SE 15.0 mph 21.9 mph N/A   Clear
12:35 AM 73.4 °F 44.6 °F 36% 29.81 in 10.0 mi SE 13.8 mph - N/A   Clear
12:55 AM 73.4 °F 44.6 °F 36% 29.81 in 10.0 mi SE 13.8 mph 19.6 mph N/A   Clear
1:15 AM 73.4 °F 44.6 °F 36% 29.82 in 10.0 mi SE 15.0 mph 18.4 mph N/A   Clear
1:35 AM 73.4 °F 46.4 °F 38% 29.82 in 10.0 mi SE 15.0 mph 20.7 mph N/A   Clear
1:55 AM 73.4 °F 46.4 °F 38% 29.82 in 10.0 mi SSE 18.4 mph 21.9 mph N/A   Clear
2:15 AM 71.6 °F 46.4 °F 41% 29.82 in 10.0 mi SE 15.0 mph - N/A   Clear
2:35 AM 71.6 °F 48.2 °F 43% 29.83 in 10.0 mi SE 17.3 mph 21.9 mph N/A   Clear
2:55 AM 71.6 °F 48.2 °F 43% 29.83 in 10.0 mi SSE 13.8 mph - N/A   Clear
3:15 AM 69.8 °F 50.0 °F 49% 29.83 in 10.0 mi SSE 15.0 mph - N/A   Clear
3:35 AM 69.8 °F 50.0 °F 49% 29.83 in 10.0 mi SE 10.4 mph - N/A   Clear
3:55 AM 69.8 °F 50.0 °F 49% 29.83 in 10.0 mi SE 11.5 mph - N/A   Clear
4:15 AM 69.8 °F 50.0 °F 49% 29.83 in 10.0 mi SE 11.5 mph 17.3 mph N/A   Clear
4:35 AM 69.8 °F 50.0 °F 49% 29.83 in 10.0 mi SE 11.5 mph - N/A   Clear
4:55 AM 69.8 °F 50.0 °F 49% 29.83 in 10.0 mi SE 13.8 mph - N/A   Clear
5:15 AM 68.0 °F 51.8 °F 56% 29.83 in 10.0 mi SE 10.4 mph - N/A   Clear
5:35 AM 68.0 °F 51.8 °F 56% 29.84 in 10.0 mi SE 8.1 mph - N/A   Clear
5:55 AM 69.8 °F 50.0 °F 49% 29.85 in 10.0 mi SE 9.2 mph - N/A   Clear
6:35 AM 69.8 °F 50.0 °F 49% 29.86 in 10.0 mi SSE 12.7 mph - N/A   Clear
6:55 AM 69.8 °F 51.8 °F 53% 29.87 in 10.0 mi SSE 9.2 mph - N/A   Clear
7:55 AM 71.6 °F 51.8 °F 50% 29.89 in 10.0 mi SE 11.5 mph - N/A   Clear
8:15 AM 71.6 °F 51.8 °F 50% 29.90 in 10.0 mi SSE 13.8 mph - N/A   Clear
8:35 AM 73.4 °F 50.0 °F 44% 29.91 in 10.0 mi SE 12.7 mph - N/A   Clear
8:55 AM 73.4 °F 50.0 °F 44% 29.91 in 10.0 mi SE 11.5 mph - N/A   Clear
9:15 AM 77.0 °F 50.0 °F 39% 29.91 in 10.0 mi SE 10.4 mph - N/A   Clear
9:35 AM 77.0 °F 50.0 °F 39% 29.91 in 10.0 mi SSE 10.4 mph - N/A   Clear
9:55 AM 78.8 °F 46.4 °F 32% 29.91 in 10.0 mi SE 8.1 mph - N/A   Clear
10:15 AM 80.6 °F 46.4 °F 30% 29.91 in 10.0 mi ESE 5.8 mph - N/A   Clear
10:35 AM 84.2 °F 44.6 °F 25% 29.91 in 10.0 mi SE 6.9 mph - N/A   Clear
10:55 AM 84.2 °F 42.8 °F 23% 29.91 in 10.0 mi South 5.8 mph - N/A   Clear
11:15 AM 84.2 °F 42.8 °F 23% 29.90 in 10.0 mi SSE 4.6 mph - N/A   Clear
11:35 AM 86.0 °F 42.8 °F 22% 29.90 in 10.0 mi SE 3.5 mph - N/A   Clear
11:55 AM 87.8 °F 42.8 °F 21% 29.89 in 10.0 mi WSW 3.5 mph - N/A   Clear
12:15 PM 87.8 °F 39.2 °F 18% 29.89 in 10.0 mi WSW 3.5 mph - N/A   Clear
12:35 PM 89.6 °F 41.0 °F 18% 29.89 in 10.0 mi SSW 4.6 mph - N/A   Clear
12:55 PM 89.6 °F 39.2 °F 17% 29.89 in 10.0 mi South 5.8 mph - N/A   Clear
1:15 PM 89.6 °F 42.8 °F 20% 29.88 in 10.0 mi SSW 6.9 mph - N/A   Clear
1:35 PM 91.4 °F 37.4 °F 15% 29.88 in 10.0 mi SSW 6.9 mph - N/A   Clear
1:55 PM 91.4 °F 33.8 °F 13% 29.87 in 10.0 mi SSW 6.9 mph - N/A   Clear
2:15 PM 89.6 °F 33.8 °F 14% 29.87 in 10.0 mi WSW 4.6 mph - N/A   Clear
2:35 PM 91.4 °F 33.8 °F 13% 29.86 in 10.0 mi South 5.8 mph - N/A   Clear
2:55 PM 91.4 °F 42.8 °F 18% 29.86 in 10.0 mi SSW 6.9 mph - N/A   Scattered Clouds
3:15 PM 91.4 °F 42.8 °F 18% 29.85 in 10.0 mi SW 3.5 mph - N/A   Clear
3:35 PM 93.2 °F 42.8 °F 17% 29.85 in 10.0 mi SSW 5.8 mph - N/A   Clear
3:55 PM 93.2 °F 42.8 °F 17% 29.85 in 10.0 mi South 5.8 mph - N/A   Clear
4:15 PM 93.2 °F 44.6 °F 19% 29.84 in 10.0 mi Calm Calm - N/A   Clear
4:35 PM 93.2 °F 44.6 °F 19% 29.84 in 10.0 mi SW 4.6 mph - N/A   Clear
4:55 PM 93.2 °F 37.4 °F 14% 29.83 in 10.0 mi Calm Calm - N/A   Clear
5:15 PM 95.0 °F 41.0 °F 15% 29.83 in 10.0 mi Calm Calm - N/A   Clear
5:35 PM 93.2 °F 42.8 °F 17% 29.83 in 10.0 mi South 8.1 mph - N/A   Clear
5:55 PM 91.4 °F 44.6 °F 20% 29.83 in 10.0 mi South 15.0 mph - N/A   Clear
6:15 PM 89.6 °F 32.0 °F 13% 29.84 in 10.0 mi South 18.4 mph 21.9 mph N/A   Clear
6:35 PM 89.6 °F 35.6 °F 15% 29.84 in 10.0 mi South 18.4 mph - N/A   Clear
6:55 PM 84.2 °F 44.6 °F 25% 29.85 in 10.0 mi South 18.4 mph 21.9 mph N/A   Clear
7:15 PM 82.4 °F 44.6 °F 26% 29.84 in 10.0 mi SSW 17.3 mph 23.0 mph N/A   Clear
7:35 PM 80.6 °F 44.6 °F 28% 29.85 in 10.0 mi South 9.2 mph - N/A   Clear
7:55 PM 80.6 °F 44.6 °F 28% 29.86 in 10.0 mi South 13.8 mph 19.6 mph N/A   Clear
8:15 PM 80.6 °F 42.8 °F 26% 29.86 in 10.0 mi South 10.4 mph 16.1 mph N/A   Clear
8:35 PM 80.6 °F 39.2 °F 23% 29.88 in 10.0 mi SE 13.8 mph - N/A   Clear
8:55 PM 80.6 °F 37.4 °F 21% 29.89 in 10.0 mi SE 17.3 mph - N/A   Clear
9:15 PM 80.6 °F 35.6 °F 20% 29.89 in 10.0 mi SE 12.7 mph - N/A   Clear
9:35 PM 80.6 °F 35.6 °F 20% 29.90 in 10.0 mi SE 13.8 mph - N/A   Clear
9:55 PM 78.8 °F 35.6 °F 21% 29.91 in 10.0 mi SE 13.8 mph - N/A   Clear
10:15 PM 78.8 °F 35.6 °F 21% 29.92 in 10.0 mi SSE 10.4 mph - N/A   Clear
10:35 PM 77.0 °F 39.2 °F 26% 29.92 in 10.0 mi SSE 8.1 mph - N/A   Clear
10:55 PM 77.0 °F 41.0 °F 28% 29.91 in 10.0 mi SE 6.9 mph - N/A   Clear
11:15 PM 75.2 °F 41.0 °F 29% 29.91 in 10.0 mi South 3.5 mph - N/A   Clear
11:35 PM 73.4 °F 41.0 °F 31% 29.92 in 10.0 mi South 5.8 mph - N/A   Clear
11:55 PM 73.4 °F 42.8 °F 33% 29.91 in 10.0 mi South 5.8 mph - N/A   Clear